Location: Newark
(43.6583°N, 1.6617°E)
Time: 07:50:34
(UTC+00:00)

Vanguard 1 Rocket - All Passes

Search period start: 19 August 2019 00:00
Search period end: 29 August 2019 00:00
Orbit: 652 x 4224 km, 34.3° (Epoch: 18 August)

Date Brightness Start Highest point End Pass type
(mag) Time Alt. Az. Time Alt. Az. Time Alt. Az.
19 Aug - 01:38:32 10° SSE 01:40:02 11° SSE 01:41:38 10° SE visible
19 Aug - 03:58:55 10° SW 04:03:42 36° SSE 04:11:19 10° ESE visible
19 Aug - 06:22:09 10° WSW 06:28:47 41° S 06:40:47 10° SE daylight
19 Aug - 08:47:10 10° WSW 08:55:29 26° SSW 09:08:39 10° SSE daylight
20 Aug - 02:49:10 10° SW 02:53:04 25° SSE 02:58:21 10° ESE visible
20 Aug - 05:11:53 10° WSW 05:17:27 41° S 05:27:05 10° ESE daylight
20 Aug - 07:35:58 10° WSW 07:43:20 31° SSW 07:55:49 10° SE daylight
20 Aug - 10:04:38 10° WSW 10:10:43 14° SSW 10:18:24 10° S daylight
21 Aug - 01:40:01 10° S 01:42:37 15° SSE 01:45:32 10° ESE visible
21 Aug - 04:01:48 10° WSW 04:06:29 36° S 04:13:50 10° ESE visible
21 Aug - 06:25:19 10° WSW 06:31:36 35° S 06:42:31 10° SE daylight
21 Aug - 08:51:11 10° WSW 08:58:15 19° SSW 09:08:28 10° SSE daylight
22 Aug - 02:51:51 10° SW 02:55:49 28° SSE 03:01:09 10° ESE visible
22 Aug - 05:14:57 10° WSW 05:20:18 36° S 05:29:15 10° ESE daylight
22 Aug - 07:39:30 10° WSW 07:46:09 24° SSW 07:56:37 10° SSE daylight
23 Aug - 01:42:09 10° SSW 01:45:17 19° SSE 01:48:50 10° ESE visible
23 Aug - 04:04:45 10° WSW 04:09:19 35° S 04:16:19 10° ESE visible
23 Aug - 06:28:36 10° WSW 06:34:28 28° SSW 06:44:01 10° SE daylight
23 Aug - 08:56:18 10° SW 09:01:04 13° SSW 09:07:01 10° S daylight
24 Aug - 00:33:24 10° S 00:34:45 11° SSE 00:36:04 10° SE night (unlit)
24 Aug - 02:54:38 10° SW 02:58:37 30° S 03:03:53 10° ESE visible
24 Aug - 05:18:07 10° WSW 05:23:09 31° S 05:31:15 10° SE daylight
24 Aug - 07:43:30 10° WSW 07:49:01 18° SSW 07:56:50 10° SSE daylight
25 Aug - 01:44:36 10° SW 01:48:03 22° SSE 01:51:54 10° ESE visible
25 Aug - 04:07:47 10° WSW 04:12:11 32° S 04:18:42 10° ESE visible
25 Aug - 06:32:07 10° WSW 06:37:21 22° SSW 06:45:10 10° SSE daylight
26 Aug - 00:34:46 10° SSW 00:37:29 15° SSE 00:40:06 10° ESE night (unlit)
26 Aug - 02:57:31 10° WSW 03:01:27 30° S 03:06:33 10° ESE visible
26 Aug - 05:21:23 10° WSW 05:26:03 25° SSW 05:33:04 10° SE daylight
26 Aug - 07:48:45 10° SW 07:51:54 12° SSW 07:55:40 10° S daylight
27 Aug - 01:47:13 10° SW 01:50:51 25° S 01:54:51 10° ESE visible
27 Aug - 04:10:54 10° WSW 04:15:04 28° S 04:20:58 10° SE visible
27 Aug - 06:36:08 10° SW 06:40:15 16° SSW 06:45:45 10° SSE daylight
28 Aug - 00:36:52 10° SSW 00:40:16 19° SSE 00:43:28 10° ESE night (unlit)
28 Aug - 03:00:29 10° WSW 03:04:19 28° S 03:09:09 10° ESE visible
28 Aug - 05:24:54 10° WSW 05:28:57 19° SSW 05:34:33 10° SSE daylight
28 Aug - 23:26:39 10° SSW 23:29:33 15° SSE 23:32:06 10° SE night (unlit)
